Station KLIH1 - 1615680 - Kahului, Kahului Harbor, HI Image indicating link to RSS feed of recent meteorological observations for station KLIH1


Conditions at KLIH1 as of
(10:30 pm HAST on 04/21/2024)
0830 GMT on 04/22/2024:
     

Click on the graph icon in the table below to see a time series plot of the last five days of that observation.

5-day plot - Wind Direction Wind Direction (WDIR):ENE ( 70 deg true )
5-day plot - Wind Speed Wind Speed (WSPD): 15.9 kts
5-day plot - Wind Gust Wind Gust (GST): 20.0 kts
5-day plot - Atmospheric Pressure Atmospheric Pressure (PRES):30.15 in
5-day plot - Air Temperature Air Temperature (ATMP): 73.8 °F
5-day plot - Water Temperature Water Temperature (WTMP): 77.5 °F
5-day plot - Wind Speed at 10 Meters Wind Speed at 10 meters (WSPD10M): 17.5 kts
5-day plot - Wind Speed at 20 Meters Wind Speed at 20 meters (WSPD20M): 19.4 kts
5-day plot -  Wind Speed, Wind Gust and Atmospheric Pressure Combined plot of Wind Speed, Gust, and Air Pressure
NOS Water Level Observation Network Water Level
Previous observations
TIME
(HAST)
5-day plot - Wind Direction
WDIR
 
5-day plot - Wind Speed
WSPD
kts
5-day plot - Wind Gust
GST
kts
5-day plot - Wave Height
WVHT
ft
5-day plot - Dominant Wave Period
DPD
sec
5-day plot - Average Wave Period
APD
sec
5-day plot - Mean Wave Direction
MWD
 
5-day plot - Atmospheric Pressure
PRES
in
5-day plot - Pressure Tendency
PTDY
in
5-day plot - Air Temperature
ATMP
°F
5-day plot - Water Temperature
WTMP
°F
5-day plot - Dew Point
DEWP
°F
5-day plot - Salinity
SAL
psu
5-day plot - Visibility
VIS
nmi
5-day plot - Tide (above MLLW)
TIDE
ft
2024-04-21 10:24 pmENE 13.0 22.0----30.15- 73.9 77.5----
2024-04-21 10:18 pm E 15.0 21.0----30.15-- 77.5----
2024-04-21 10:12 pmENE 12.0 21.0----30.15- 73.8 77.5----
2024-04-21 10:06 pm E 18.1 24.1----30.15- 73.8 77.5----
2024-04-21 10:00 pm E 15.0 21.0----30.15+0.05 73.9 77.5----
2024-04-21 09:54 pmENE 15.0 22.9----30.15- 73.8 77.5----
2024-04-21 09:48 pmENE 18.1 22.9----30.14-- 77.5----
2024-04-21 09:42 pmENE 17.1 21.0----30.14- 73.8 77.5----
2024-04-21 09:36 pmENE 17.1 22.9----30.14- 73.9 77.5----
2024-04-21 09:30 pmENE 21.0 24.1----30.14- 73.9 77.5----
2024-04-21 09:24 pmENE 19.0 21.0----30.14- 74.1 77.5----
2024-04-21 09:18 pmENE 18.1 21.0----30.14-- 77.7----
2024-04-21 09:12 pmENE 18.1 21.0----30.14- 74.3 77.7----
2024-04-21 09:06 pmENE 15.9 20.0----30.14- 74.5 77.7----
2024-04-21 09:00 pmENE 15.9 20.0----30.13+0.05 74.5 77.7----
2024-04-21 08:54 pmENE 18.1 20.0----30.13- 74.5 77.7----
2024-04-21 08:48 pmENE 19.0 22.0----30.13- 74.3 77.7----
2024-04-21 08:42 pm E 14.0 18.1----30.12- 74.3 77.7----
2024-04-21 08:36 pmENE 14.0 21.0----30.12- 74.3 77.7----
2024-04-21 08:30 pm E 8.0 13.0----30.12- 74.1 77.7----
2024-04-21 08:24 pm E 8.9 12.0----30.12- 73.9 77.7----
2024-04-21 08:18 pmENE 8.9 13.0----30.12- 73.9 77.7----
2024-04-21 08:12 pmENE 12.0 15.0----30.11- 73.8 77.7----
2024-04-21 08:06 pm E 11.1 15.0----30.11- 73.9 77.7----
2024-04-21 08:00 pmENE 9.9 13.0----30.11+0.04 73.9 77.7----
2024-04-21 07:54 pmENE 9.9 15.9----30.11- 73.8 77.9----
2024-04-21 07:48 pmENE 12.0 17.1----30.11- 73.6 77.7----
2024-04-21 07:42 pmENE 12.0 18.1----30.11- 73.8 77.7----
2024-04-21 07:36 pmENE 13.0 17.1----30.11- 73.8 77.7----
2024-04-21 07:30 pmENE 15.0 17.1----30.11- 73.6 77.7----
2024-04-21 07:24 pmENE 15.0 17.1----30.10- 73.6 77.7----
2024-04-21 07:18 pm E 13.0 18.1----30.10- 73.6 77.7----
2024-04-21 07:12 pmENE 17.1 20.0----30.10- 73.6 77.7----
2024-04-21 07:06 pm E 17.1 21.0----30.10- 73.8 77.7----
2024-04-21 07:00 pm E 15.0 20.0----30.10+0.03 73.9 77.7----
2024-04-21 06:54 pmENE 15.0 20.0----30.09- 73.8 77.7----
2024-04-21 06:48 pmENE 15.0 22.9----30.09- 73.6 77.7----
2024-04-21 06:42 pmENE 14.0 21.0----30.09- 73.9 77.9----
2024-04-21 06:36 pmENE 18.1 21.0----30.09- 73.9 77.9----
2024-04-21 06:30 pmENE 19.0 22.0----30.08- 74.3 77.9----
2024-04-21 06:24 pmENE 18.1 21.0----30.08- 74.5 77.9----
2024-04-21 06:18 pmENE 15.0 19.0----30.08-- 77.9----
2024-04-21 06:12 pmENE 15.9 21.0----30.08- 74.3 77.9----
2024-04-21 06:06 pmENE 14.0 18.1----30.08- 74.3 77.9----
2024-04-21 06:00 pmENE 14.0 19.0----30.08+0.00 74.3 77.9----
2024-04-21 05:54 pmENE 13.0 20.0----30.08- 74.3 77.9----
2024-04-21 05:48 pmENE 17.1 20.0----30.08- 74.3 77.9----
2024-04-21 05:42 pmENE 17.1 21.0----30.08- 74.3 77.9----
2024-04-21 05:36 pmENE 18.1 21.0----30.07- 74.3 77.9----
2024-04-21 05:30 pmENE 15.9 21.0----30.07- 74.3 77.9----
2024-04-21 05:24 pmENE 17.1 22.0----30.07- 74.3 77.9----
2024-04-21 05:18 pmENE 15.0 21.0----30.07- 74.3 77.9----
2024-04-21 05:12 pmENE 18.1 20.0----30.07- 74.5 77.9----
2024-04-21 05:06 pmENE 17.1 22.9----30.07- 74.3 78.1----
2024-04-21 05:00 pmENE 18.1 22.9----30.07-0.01 74.5 77.9----
2024-04-21 04:54 pmENE 18.1 22.0----30.07- 74.3 77.9----
2024-04-21 04:48 pmENE 19.0 22.9----30.07-- 77.9----
2024-04-21 04:42 pm E 15.9 22.9----30.07-- 77.9----
2024-04-21 04:36 pmENE 19.0 22.9----30.07-- 77.9----
2024-04-21 04:30 pmENE 19.0 24.1----30.07- 74.3 77.9----
2024-04-21 04:24 pmENE 20.0 22.9----30.07- 74.3 77.9----
2024-04-21 04:18 pmENE 19.0 24.1----30.07- 74.3 77.9----
2024-04-21 04:12 pm E 20.0 25.1----30.07- 74.5 77.9----
2024-04-21 04:06 pmENE 20.0 24.1----30.07- 74.3 77.9----
2024-04-21 04:00 pm E 19.0 25.1----30.07-0.03 74.3-----
2024-04-21 03:54 pmENE 21.0 24.1----30.07- 74.1-----
2024-04-21 03:48 pmENE 21.0 24.1----30.07- 73.9 77.7----
2024-04-21 03:42 pmENE 21.0 24.1----30.07- 74.1 77.7----
2024-04-21 03:36 pmENE 15.0 24.1----30.07- 74.5 77.7----
2024-04-21 03:30 pmENE 20.0 24.1----30.07-- 77.7----
2024-04-21 03:24 pmENE 20.0 22.9----30.07-- 77.7----
2024-04-21 03:18 pmENE 13.0 22.0----30.07-- 77.9----
2024-04-21 03:12 pmENE 17.1 24.1----30.08- 74.8 77.9----
2024-04-21 03:06 pmENE 17.1 22.9----30.08- 74.8 77.7----
2024-04-21 03:00 pmENE 19.0 22.9----30.08-0.04 74.3 77.7----
2024-04-21 02:54 pmENE 15.9 22.9----30.08- 74.5 77.7----
2024-04-21 02:48 pm E 15.9 22.9----30.07- 74.5 77.7----
2024-04-21 02:42 pm E 15.0 24.1----30.07- 74.7 77.7----
2024-04-21 02:36 pmENE 15.9 22.9----30.07- 74.7 77.7----
2024-04-21 02:30 pmENE 17.1 22.0----30.08- 74.7 77.7----
2024-04-21 02:24 pmENE 15.0 22.9----30.08- 74.8 77.7----
2024-04-21 02:18 pm E 12.0 20.0----30.08-- 77.7----
2024-04-21 02:12 pm E 11.1 20.0----30.08-- 78.1----
2024-04-21 02:06 pm E 12.0 19.0----30.08-- 78.4----
2024-04-21 02:00 pm E 9.9 18.1----30.08-0.05 75.2 78.3----
2024-04-21 01:54 pm E 6.0 15.9----30.09- 75.2 78.6----
2024-04-21 01:48 pmENE 8.0 15.0----30.09-- 78.3----
2024-04-21 01:42 pmENE 8.0 15.9----30.09- 75.0 78.4----
2024-04-21 01:36 pm NE 6.0 13.0----30.09- 75.4 78.4----
2024-04-21 01:30 pm NE 6.0 12.0----30.09- 75.2 78.3----
2024-04-21 01:24 pm NE 6.0 14.0----30.09- 75.4 77.9----
2024-04-21 01:18 pm E 8.9 22.0----30.10-- 77.5----
2024-04-21 01:12 pmENE 5.1 19.0----30.10-- 77.5----
2024-04-21 01:06 pm NE 6.0 17.1----30.10-- 77.5----
2024-04-21 01:00 pm NE 8.0 18.1----30.10-0.03 75.0 77.5----
2024-04-21 12:54 pmENE 7.0 17.1----30.11- 74.8 77.5----
2024-04-21 12:48 pmENE 7.0 15.0----30.11-- 77.5----
2024-04-21 12:42 pmENE 9.9 17.1----30.11-- 77.5----
2024-04-21 12:36 pmENE 8.9 18.1----30.11-- 77.5----
2024-04-21 12:30 pmENE 8.9 19.0----30.11- 74.8 77.5----
2024-04-21 12:24 pm E 8.9 17.1----30.12- 74.7 77.5----
2024-04-21 12:18 pmENE 8.9 17.1----30.12- 74.7 77.5----
2024-04-21 12:12 pmENE 6.0 13.0----30.12- 74.7 77.5----
2024-04-21 12:06 pmENE 6.0 18.1----30.12- 74.7 77.4----
2024-04-21 12:00 pmENE 9.9 20.0----30.12-0.02 74.5 77.4----
2024-04-21 11:54 amENE 8.9 19.0----30.12- 74.5 77.5----
2024-04-21 11:48 amENE 11.1 19.0----30.12- 74.5 77.5----
2024-04-21 11:42 am E 8.9 19.0----30.12- 74.7 77.5----
2024-04-21 11:36 amENE 9.9 17.1----30.12- 74.3 77.5----
2024-04-21 11:30 am E 8.9 17.1----30.12- 74.8 77.5----
2024-04-21 11:24 am E 9.9 18.1----30.13- 74.7 77.5----
2024-04-21 11:18 am E 11.1 18.1----30.13- 74.7 77.7----
2024-04-21 11:12 amENE 8.9 18.1----30.13- 74.5 77.7----
2024-04-21 11:06 amENE 12.0 21.0----30.13- 74.3 77.7----
2024-04-21 11:00 amENE 11.1 18.1----30.13+0.00 74.7 77.4----
2024-04-21 10:54 amENE 8.9 19.0----30.13- 74.7 77.2----
2024-04-21 10:48 am E 11.1 19.0----30.13- 74.5 77.2----
2024-04-21 10:42 amENE 14.0 18.1----30.13- 74.3 77.0----
2024-04-21 10:36 am E 15.9 20.0----30.13- 74.1 77.0----
2024-04-21 10:30 am E 15.9 22.0----30.14- 74.1 77.0----
2024-04-21 10:24 amENE 15.9 21.0----30.14- 73.9 77.0----
2024-04-21 10:18 amENE 18.1 22.0----30.14-- 77.0----
2024-04-21 10:12 amENE 18.1 22.0----30.14- 73.8 77.0----
2024-04-21 10:06 amENE 18.1 21.0----30.14- 73.8 77.0----
2024-04-21 10:00 amENE 18.1 21.0----30.14+0.02 73.8 77.0----
2024-04-21 09:54 amENE 12.0 19.0----30.14- 74.3 76.8----
2024-04-21 09:48 amENE 11.1 15.9----30.14- 73.8 76.8----
2024-04-21 09:42 amENE 14.0 18.1----30.14- 73.6 76.8----
2024-04-21 09:36 amENE 14.0 19.0----30.14- 73.8 76.8----
2024-04-21 09:30 am E 15.9 20.0----30.14- 73.2 77.0----
2024-04-21 09:24 am E 12.0 20.0----30.14- 73.0 76.8----
2024-04-21 09:18 am E 18.1 21.0----30.14- 73.0 76.8----
2024-04-21 09:12 am E 12.0 18.1----30.14- 73.9 76.8----
2024-04-21 09:06 amENE 15.0 19.0----30.14- 73.6 76.8----
2024-04-21 09:00 amENE 17.1 21.0----30.14+0.04 73.4 76.8----
2024-04-21 08:54 am E 13.0 15.9----30.14- 73.8 76.8----
2024-04-21 08:48 amENE 8.9 14.0----30.14- 73.8 76.8----
2024-04-21 08:42 amENE 7.0 12.0----30.14- 73.8 77.0----
2024-04-21 08:36 amENE 4.1 9.9----30.14- 73.6 76.8----
2024-04-21 08:30 amENE 7.0 9.9----30.14- 73.2 76.8----
2024-04-21 08:24 amENE 5.1 9.9----30.14- 73.6 76.8----
2024-04-21 08:18 am E 5.1 11.1----30.14- 73.2 76.8----
2024-04-21 08:12 amENE 6.0 12.0----30.14- 72.9 76.8----
2024-04-21 08:06 amENE 9.9 12.0----30.14- 72.9 76.8----
2024-04-21 08:00 amENE 8.0 9.9----30.13+0.05 72.9 77.0----
2024-04-21 07:54 am E 6.0 9.9----30.13- 72.5 77.0----
2024-04-21 07:48 am E 8.9 14.0----30.13- 72.1 77.2----
2024-04-21 07:42 amENE 8.9 13.0----30.13- 72.1 77.4----
2024-04-21 07:36 amENE 8.0 13.0----30.13- 72.0 77.4----
2024-04-21 07:30 amENE 7.0 9.9----30.13- 72.0 77.4----
2024-04-21 07:24 am E 6.0 11.1----30.13- 72.5 77.4----
2024-04-21 07:18 amENE 7.0 9.9----30.12- 72.0 77.4----
2024-04-21 07:12 am E 7.0 11.1----30.12- 72.1 77.4----
2024-04-21 07:06 am E 5.1 13.0----30.12- 72.3 77.4----
2024-04-21 07:00 am E 8.0 11.1----30.11+0.04 72.0 77.4----
2024-04-21 06:54 am E 6.0 11.1----30.11- 71.6 77.4----
2024-04-21 06:48 am E 6.0 9.9----30.11- 71.6 77.4----
2024-04-21 06:42 am E 8.0 13.0----30.11- 71.8 77.4----
2024-04-21 06:36 am E 8.9 13.0----30.10- 72.0 77.4----
2024-04-21 06:30 amENE 11.1 14.0----30.10- 72.1 77.4----
2024-04-21 06:24 amENE 8.0 12.0----30.10- 72.1 77.4----
2024-04-21 06:18 am NE 5.1 8.0----30.10- 72.3 77.4----
2024-04-21 06:12 am NE 4.1 8.0----30.10- 72.0 77.4----
2024-04-21 06:06 am NE 2.9 5.1----30.10- 72.0 77.4----
2024-04-21 06:00 amENE 6.0 8.9----30.10+0.02------
2024-04-21 05:54 amENE 7.0 8.0----30.10-------
2024-04-21 05:48 am NE 8.0 9.9----30.10-- 77.5----
2024-04-21 05:42 amENE 8.9 11.1----30.09-- 77.5----
2024-04-21 05:36 amENE 6.0 8.9----30.09-- 77.5----
2024-04-21 05:30 amENE 7.0 8.9----30.09- 72.1 77.4----
2024-04-21 05:24 amENE 8.9 12.0----30.09- 72.1 77.5----
2024-04-21 05:18 amENE 9.9 12.0----30.09- 72.0 77.4----
2024-04-21 05:12 amENE 9.9 13.0----30.09- 72.1 77.4----
2024-04-21 05:06 amENE 8.0 12.0----30.09- 72.3 77.4----
2024-04-21 05:00 amENE 9.9 12.0----30.08-0.01 72.1 77.4----
2024-04-21 04:54 amENE 8.9 14.0----30.08- 72.3 77.4----
2024-04-21 04:48 amENE 8.9 14.0----30.08-- 77.4----
2024-04-21 04:42 amENE 8.0 12.0----30.08- 72.3 77.4----
2024-04-21 04:36 amENE 8.0 12.0----30.08- 72.5 77.4----
2024-04-21 04:30 am NE 8.0 11.1----30.08- 72.7 77.4----
2024-04-21 04:24 am NE 8.9 11.1----30.08- 72.5 77.4----
2024-04-21 04:18 am NE 8.0 11.1----30.08- 72.7 77.4----
2024-04-21 04:12 am NE 8.9 12.0----30.07- 72.7 77.4----
2024-04-21 04:06 am NE 8.9 11.1----30.08- 72.7 77.4----
2024-04-21 04:00 am NE 8.0 11.1----30.07-0.03 73.0 77.4----
2024-04-21 03:54 am NE 8.9 11.1----30.07- 72.7 77.4----
2024-04-21 03:48 am NE 8.9 11.1----30.08- 72.9 77.4----
2024-04-21 03:42 amNNE 8.0 11.1----30.07- 73.0 77.4----
2024-04-21 03:36 amNNE 7.0 11.1----30.07- 73.2 77.4----
2024-04-21 03:30 am NE 8.0 11.1----30.07- 73.2-----
2024-04-21 03:24 am NE 7.0 9.9----30.07- 73.0-----
2024-04-21 03:18 amNNE 8.0 9.9----30.07- 73.0 77.4----
2024-04-21 03:12 am NE 9.9 12.0----30.07- 72.9 77.4----
2024-04-21 03:06 amNNE 8.9 11.1----30.08- 73.0 77.4----
2024-04-21 03:00 am N 8.0 9.9----30.08-0.05 73.2 77.4----
2024-04-21 02:54 amNNE 8.0 11.1----30.08- 73.0 77.4----
2024-04-21 02:48 amNNE 8.0 9.9----30.08-- 77.4----
2024-04-21 02:42 amNNE 7.0 8.9----30.08-- 77.4----
2024-04-21 02:36 amNNE 6.0 9.9----30.08-- 77.4----
2024-04-21 02:30 am NE 7.0 9.9----30.08-- 77.4----
2024-04-21 02:24 am NE 7.0 8.0----30.08-- 77.4----
2024-04-21 02:18 amNNE 8.0 8.9----30.08-- 77.4----
2024-04-21 02:12 am NE 6.0 8.9----30.09-- 77.4----
2024-04-21 02:06 amNNE 6.0 8.9----30.09-- 77.4----
2024-04-21 02:00 amNNE 7.0 9.9----30.09-0.04 72.9 77.4----
2024-04-21 01:54 am N 7.0 9.9----30.09- 72.9 77.4----
2024-04-21 01:48 am N 7.0 9.9----30.09- 72.9 77.4----
2024-04-21 01:42 am N 8.0 9.9----30.10- 73.0 77.4----
2024-04-21 01:36 am N 7.0 8.9----30.10- 73.0 77.4----
2024-04-21 01:30 am N 6.0 8.9----30.10- 73.0 77.4----
2024-04-21 01:24 amNNE 8.0 8.9----30.10- 73.0 77.4----
2024-04-21 01:18 am NE 7.0 8.9----30.10-- 77.4----
2024-04-21 01:12 amNNE 7.0 8.9----30.10- 73.2 77.5----
2024-04-21 01:06 amNNE 8.0 8.9----30.10- 73.2 77.5----
2024-04-21 01:00 amNNE 7.0 8.9----30.11- 73.0 77.5----
2024-04-21 12:54 am NE 6.0 9.9----30.11- 73.2 77.5----
2024-04-21 12:48 am NE 7.0 8.0----30.11- 73.0 77.5----
2024-04-21 12:42 am NE 8.0 11.1----30.11- 73.0 77.5----
2024-04-21 12:36 am NE 6.0 8.0----30.11- 73.2 77.5----
2024-04-21 12:30 amENE 6.0 9.9----30.11-- 77.5----
2024-04-21 12:24 amENE 7.0 8.9----30.12-- 77.5----
2024-04-21 12:18 amENE 5.1 9.9----30.12- 73.2 77.5----
2024-04-21 12:12 amENE 6.0 8.0----30.12- 73.0 77.5----
2024-04-21 12:06 amENE 6.0 8.0----30.12- 73.2 77.5----
2024-04-21 12:00 am NE 6.0 8.9----30.12+0.00 73.2 77.5----
2024-04-20 11:54 pmENE 7.0 8.0----30.13- 73.0 77.4----
2024-04-20 11:48 pmENE 5.1 8.0----30.13- 73.4 77.5----
2024-04-20 11:42 pmENE 7.0 8.9----30.13- 73.4 77.5----
2024-04-20 11:36 pmENE 5.1 8.0----30.13- 73.4 77.5----
2024-04-20 11:30 pmENE 6.0 8.9----30.13- 73.6 77.4----
2024-04-20 11:24 pm NE 6.0 8.0----30.13- 73.4 77.4----
2024-04-20 11:18 pmENE 4.1 8.0----30.13- 73.4 77.4----
2024-04-20 11:12 pmENE 5.1 8.0----30.13- 73.8 77.4----
2024-04-20 11:06 pm NE 7.0 8.9----30.13- 73.6 77.4----
2024-04-20 11:00 pmENE 6.0 8.0----30.13+0.04 73.6 77.4----
2024-04-20 10:54 pmENE 5.1 8.0----30.14- 73.6 77.4----